contact:dominique.lefevre@mio.osupytheas.fr, maurice.libes@osupytheas.fr, didier.mallarino@osupytheas.fr
Project:EMSO http://www.emso-fr.org/EMSO-France
Depth: 2436.0 m
Title:EMSO Ligure Ouest : Data MII capteur AQUADOPP
Date,Latitude,Longitude,X_East,Y_North,Z_Up,Amplitude_X,Amplitude_Y,Amplitude_Z,Batterie,SoundSpeed,Heading,Pitch,Roll,Pressure,TIS,Speed,Direction
, degrees North, degrees East, m.s-1, m.s-1,m.s-1, 1, 1, 1, Volt, m.s-1, degree, degree, degree, dbar, degree_C, m.s-1, degree
2022-06-24T00:04:03,42.805,6.029,0.021,-0.016,-0.026,105.0,105.0,103.0,13.3,1505.2,326.0,-0.8,1.8,2470.809,13.28,0.026,127.3
2022-06-24T00:07:03,42.805,6.029,0.021,-0.023,-0.004,104.0,105.0,102.0,13.4,1505.2,324.9,-0.7,1.8,2470.867,13.28,0.031,137.6
2022-06-24T00:10:03,42.805,6.029,0.026,-0.003,-0.012,105.0,106.0,102.0,13.4,1505.2,321.6,-0.8,1.8,2470.882,13.28,0.026,96.6
2022-06-24T00:13:03,42.805,6.029,0.008,-0.014,-0.05,104.0,105.0,101.0,13.4,1505.2,320.1,-0.8,1.8,2470.899,13.28,0.016,150.3
2022-06-24T00:16:03,42.805,6.029,-0.006,0.001,-0.007,104.0,104.0,104.0,13.4,1505.2,326.0,-0.7,1.8,2470.828,13.28,0.006,279.5
2022-06-24T00:19:03,42.805,6.029,0.03,-0.023,0.0,105.0,105.0,102.0,13.4,1505.2,324.4,-0.8,1.8,2470.832,13.28,0.037,127.5
2022-06-24T00:22:03,42.805,6.029,0.029,-0.002,-0.017,106.0,104.0,103.0,13.3,1505.2,321.4,-0.8,1.8,2470.857,13.28,0.029,93.9
2022-06-24T00:25:03,42.805,6.029,0.018,-0.013,-0.022,106.0,105.0,104.0,13.4,1505.2,327.7,-0.8,1.8,2470.857,13.29,0.022,125.8
2022-06-24T00:28:03,42.805,6.029,0.03,-0.01,-0.001,106.0,105.0,103.0,13.3,1505.2,324.7,-0.8,1.8,2470.882,13.29,0.031,108.4
2022-06-24T00:31:03,42.805,6.029,0.011,-0.027,0.009,106.0,107.0,103.0,13.4,1505.2,331.8,-0.8,1.8,2470.887,13.29,0.029,157.8
2022-06-24T00:34:03,42.805,6.029,0.005,0.0,-0.004,105.0,105.0,104.0,13.4,1505.2,324.0,-0.8,1.8,2470.888,13.29,0.005,90.0
2022-06-24T00:37:03,42.805,6.029,0.027,-0.004,-0.022,106.0,108.0,103.0,13.4,1505.2,320.7,-0.7,1.8,2470.927,13.29,0.027,98.4
2022-06-24T00:40:03,42.805,6.029,0.015,-0.035,-0.022,105.0,105.0,102.0,13.3,1505.2,324.6,-0.7,1.8,2470.852,13.28,0.038,156.8
2022-06-24T00:43:03,42.805,6.029,0.014,-0.033,-0.028,105.0,104.0,104.0,13.4,1505.2,332.2,-0.8,1.8,2470.86,13.29,0.035,157.0
2022-06-24T00:46:03,42.805,6.029,0.024,-0.025,-0.013,107.0,104.0,103.0,13.4,1505.2,327.9,-0.8,1.8,2470.879,13.29,0.034,136.2
2022-06-24T00:49:03,42.805,6.029,0.023,-0.011,-0.043,106.0,105.0,103.0,13.4,1505.2,329.0,-0.8,1.8,2470.864,13.28,0.025,115.6
2022-06-24T00:52:03,42.805,6.029,0.016,-0.009,0.0,106.0,104.0,102.0,13.3,1505.2,325.5,-0.8,1.8,2470.856,13.28,0.018,119.4
2022-06-24T00:55:03,42.805,6.029,0.005,-0.018,-0.041,105.0,104.0,102.0,13.4,1505.2,319.8,-0.8,1.8,2470.86,13.29,0.018,164.5
2022-06-24T00:58:03,42.805,6.029,0.015,-0.027,-0.022,104.0,104.0,103.0,13.3,1505.2,332.2,-0.7,1.8,2470.862,13.28,0.03,150.9
2022-06-24T01:04:03,42.805,6.029,0.018,-0.024,-0.036,106.0,104.0,103.0,13.4,1505.2,321.2,-0.7,1.8,2470.873,13.28,0.03,143.1
2022-06-24T01:07:03,42.805,6.029,0.009,-0.028,-0.027,105.0,105.0,103.0,13.4,1505.2,329.2,-0.7,1.8,2470.883,13.28,0.029,162.2
2022-06-24T01:10:03,42.805,6.029,0.014,-0.003,-0.002,106.0,106.0,103.0,13.4,1505.2,323.5,-0.7,1.8,2470.908,13.28,0.014,102.1
2022-06-24T01:13:03,42.805,6.029,0.022,-0.032,0.005,105.0,106.0,102.0,13.4,1505.2,328.3,-0.8,1.9,2470.892,13.28,0.038,145.5
2022-06-24T01:16:03,42.805,6.029,0.021,-0.027,-0.026,105.0,104.0,103.0,13.4,1505.2,327.4,-0.7,1.8,2470.897,13.28,0.034,142.1
2022-06-24T01:19:03,42.805,6.029,0.019,-0.026,-0.02,103.0,104.0,102.0,13.3,1505.2,320.9,-0.8,1.8,2470.922,13.28,0.032,143.8
2022-06-24T01:22:03,42.805,6.029,0.011,-0.019,-0.016,105.0,103.0,102.0,13.3,1505.2,329.3,-0.8,1.8,2470.893,13.28,0.021,149.9
2022-06-24T01:25:03,42.805,6.029,0.002,-0.01,-0.065,105.0,104.0,102.0,13.4,1505.2,328.9,-0.8,1.8,2470.87,13.28,0.01,168.7
2022-06-24T01:28:03,42.805,6.029,0.009,-0.016,-0.024,106.0,104.0,102.0,13.4,1505.2,321.9,-0.7,1.8,2470.914,13.28,0.018,150.6
2022-06-24T01:31:03,42.805,6.029,0.024,-0.03,-0.018,104.0,105.0,102.0,13.3,1505.2,323.8,-0.8,1.8,2470.878,13.28,0.038,141.3
2022-06-24T01:34:03,42.805,6.029,0.019,-0.021,-0.047,106.0,103.0,101.0,13.4,1505.2,329.9,-0.8,1.8,2470.867,13.28,0.028,137.9
2022-06-24T01:37:03,42.805,6.029,0.015,-0.015,-0.025,105.0,103.0,101.0,13.4,1505.2,330.5,-0.8,1.9,2470.882,13.28,0.021,135.0
2022-06-24T01:40:03,42.805,6.029,0.024,-0.028,0.038,106.0,104.0,102.0,13.3,1505.2,325.1,-0.8,1.8,2470.921,13.28,0.036,139.4
2022-06-24T01:43:03,42.805,6.029,0.017,-0.032,0.01,105.0,104.0,102.0,13.4,1505.2,323.6,-0.8,1.8,2470.884,13.28,0.036,152.0
2022-06-24T01:46:03,42.805,6.029,0.007,-0.034,-0.027,104.0,103.0,102.0,13.4,1505.2,323.4,-0.8,1.8,2470.885,13.29,0.034,168.4
2022-06-24T01:49:03,42.805,6.029,0.01,-0.032,-0.03,104.0,103.0,103.0,13.3,1505.2,324.4,-0.8,1.8,2470.93,13.28,0.033,162.6
2022-06-24T01:52:03,42.805,6.029,0.015,-0.031,-0.028,106.0,105.0,103.0,13.4,1505.2,324.0,-0.8,1.8,2470.901,13.28,0.034,154.2
2022-06-24T01:55:03,42.805,6.029,0.006,-0.022,-0.018,104.0,104.0,102.0,13.4,1505.2,321.9,-0.8,1.9,2470.855,13.28,0.022,164.7
2022-06-24T01:58:03,42.805,6.029,0.018,-0.029,-0.023,106.0,104.0,103.0,13.3,1505.2,331.0,-0.7,1.8,2470.902,13.28,0.034,148.2
2022-06-24T02:04:03,42.805,6.029,0.001,-0.022,-0.003,106.0,105.0,103.0,13.4,1505.2,321.7,-0.8,1.8,2470.918,13.28,0.022,177.4
2022-06-24T02:07:03,42.805,6.029,0.027,-0.013,0.006,106.0,104.0,103.0,13.3,1505.2,322.4,-0.8,1.8,2470.929,13.28,0.029,115.7
2022-06-24T02:10:03,42.805,6.029,0.021,-0.005,0.002,104.0,104.0,102.0,13.4,1505.2,321.3,-0.7,1.8,2470.937,13.28,0.021,103.4
2022-06-24T02:13:03,42.805,6.029,0.015,-0.018,-0.009,104.0,104.0,102.0,13.3,1505.2,321.1,-0.7,1.8,2470.889,13.28,0.023,140.2
2022-06-24T02:16:03,42.805,6.029,0.02,-0.011,0.007,104.0,103.0,102.0,13.3,1505.2,321.6,-0.8,1.8,2470.869,13.28,0.022,118.8
2022-06-24T02:19:03,42.805,6.029,-0.006,-0.039,-0.028,104.0,104.0,102.0,13.3,1505.2,333.2,-0.8,1.8,2470.949,13.28,0.039,188.7
2022-06-24T02:22:03,42.805,6.029,0.005,-0.045,0.004,103.0,104.0,104.0,13.3,1505.2,324.7,-0.7,1.8,2470.932,13.28,0.045,173.7
2022-06-24T02:25:03,42.805,6.029,0.012,-0.013,-0.022,104.0,105.0,103.0,13.4,1505.2,320.1,-0.8,1.8,2470.915,13.28,0.017,137.3
2022-06-24T02:28:03,42.805,6.029,0.018,-0.028,-0.024,104.0,105.0,101.0,13.4,1505.2,330.8,-0.8,1.8,2470.925,13.28,0.033,147.3
2022-06-24T02:31:03,42.805,6.029,0.015,-0.034,-0.037,104.0,103.0,102.0,13.4,1505.2,321.9,-0.8,1.8,2470.878,13.28,0.037,156.2
2022-06-24T02:34:03,42.805,6.029,0.003,-0.018,-0.012,104.0,103.0,101.0,13.4,1505.2,328.3,-0.8,1.8,2470.907,13.28,0.018,170.5
2022-06-24T02:37:03,42.805,6.029,0.021,-0.041,-0.027,105.0,103.0,102.0,13.3,1505.2,332.5,-0.7,1.8,2470.893,13.28,0.046,152.9
2022-06-24T02:40:03,42.805,6.029,0.012,-0.016,-0.028,105.0,105.0,102.0,13.4,1505.2,325.2,-0.8,1.8,2470.898,13.28,0.02,143.1
2022-06-24T02:43:03,42.805,6.029,0.014,-0.03,-0.041,104.0,104.0,102.0,13.4,1505.2,322.0,-0.7,1.8,2470.87,13.28,0.033,155.0
2022-06-24T02:46:03,42.805,6.029,-0.007,-0.01,-0.006,105.0,104.0,103.0,13.4,1505.2,328.0,-0.7,1.8,2470.899,13.28,0.012,215.0
2022-06-24T02:49:03,42.805,6.029,0.013,-0.037,-0.012,105.0,105.0,103.0,13.4,1505.2,328.4,-0.8,1.8,2470.887,13.28,0.039,160.6
2022-06-24T02:52:03,42.805,6.029,0.015,-0.037,-0.045,105.0,105.0,103.0,13.4,1505.2,324.0,-0.8,1.8,2470.881,13.28,0.039,157.9
2022-06-24T02:55:03,42.805,6.029,0.008,-0.012,-0.026,105.0,104.0,102.0,13.4,1505.2,323.4,-0.7,1.9,2470.96,13.28,0.014,146.3
2022-06-24T02:58:03,42.805,6.029,0.017,-0.022,-0.002,105.0,104.0,102.0,13.4,1505.2,327.2,-0.7,1.8,2470.894,13.28,0.027,142.3
2022-06-24T03:04:03,42.805,6.029,-0.004,-0.029,-0.026,105.0,105.0,102.0,13.4,1505.2,326.4,-0.8,1.8,2470.947,13.28,0.029,187.8
2022-06-24T03:07:03,42.805,6.029,0.0,-0.009,-0.02,105.0,105.0,102.0,13.3,1505.2,329.6,-0.8,1.8,2470.908,13.28,0.009,180.0
2022-06-24T03:10:03,42.805,6.029,0.015,-0.02,-0.043,106.0,104.0,102.0,13.4,1505.2,319.5,-0.8,1.8,2470.911,13.28,0.025,143.1
2022-06-24T03:13:03,42.805,6.029,0.001,-0.023,-0.012,107.0,105.0,104.0,13.4,1505.2,331.8,-0.8,1.8,2470.888,13.28,0.023,177.5
2022-06-24T03:16:03,42.805,6.029,0.013,-0.032,-0.022,106.0,103.0,102.0,13.4,1505.2,324.2,-0.7,1.9,2470.907,13.28,0.034,157.9
2022-06-24T03:19:03,42.805,6.029,0.03,-0.017,-0.039,108.0,104.0,102.0,13.3,1505.2,326.0,-0.7,1.8,2470.914,13.28,0.034,119.5
2022-06-24T03:22:03,42.805,6.029,-0.003,-0.051,-0.019,105.0,105.0,102.0,13.3,1505.2,324.7,-0.7,1.8,2470.944,13.28,0.051,183.4
2022-06-24T03:25:03,42.805,6.029,0.019,-0.04,-0.009,105.0,104.0,102.0,13.4,1505.2,326.3,-0.8,1.8,2470.913,13.28,0.044,154.6
2022-06-24T03:28:03,42.805,6.029,0.005,-0.048,-0.021,105.0,104.0,103.0,13.3,1505.2,321.1,-0.8,1.9,2470.923,13.28,0.048,174.1
2022-06-24T03:31:03,42.805,6.029,0.017,-0.033,-0.038,106.0,104.0,103.0,13.3,1505.2,331.2,-0.8,1.8,2470.939,13.28,0.037,152.7
2022-06-24T03:34:03,42.805,6.029,0.019,-0.025,0.011,105.0,104.0,102.0,13.4,1505.2,323.0,-0.7,1.8,2470.918,13.28,0.031,142.8
2022-06-24T03:37:03,42.805,6.029,0.008,-0.026,-0.013,105.0,105.0,102.0,13.4,1505.2,323.5,-0.8,1.8,2470.924,13.28,0.027,162.9
2022-06-24T03:40:03,42.805,6.029,-0.001,-0.027,-0.019,105.0,104.0,102.0,13.4,1505.2,332.0,-0.7,1.8,2470.932,13.28,0.027,182.1
2022-06-24T03:43:03,42.805,6.029,0.009,-0.028,-0.03,104.0,105.0,103.0,13.3,1505.2,324.1,-0.8,1.8,2470.941,13.28,0.029,162.2
2022-06-24T03:46:03,42.805,6.029,0.015,-0.033,-0.039,104.0,104.0,102.0,13.4,1505.2,331.8,-0.8,1.8,2470.845,13.28,0.036,155.6
2022-06-24T03:49:03,42.805,6.029,0.004,-0.026,-0.023,104.0,104.0,101.0,13.4,1505.2,330.0,-0.8,1.8,2470.918,13.28,0.026,171.3
2022-06-24T03:52:03,42.805,6.029,0.004,-0.036,-0.053,105.0,103.0,104.0,13.3,1505.2,325.9,-0.8,1.8,2470.891,13.28,0.036,173.7
2022-06-24T03:55:03,42.805,6.029,-0.002,-0.03,-0.035,104.0,104.0,103.0,13.4,1505.2,323.4,-0.7,1.8,2470.887,13.28,0.03,183.8
2022-06-24T03:58:03,42.805,6.029,0.013,-0.026,-0.026,105.0,103.0,102.0,13.4,1505.2,323.7,-0.8,1.8,2470.882,13.28,0.029,153.4
2022-06-24T04:04:03,42.805,6.029,-0.008,-0.028,-0.026,105.0,105.0,103.0,13.4,1505.2,327.0,-0.7,1.8,2470.936,13.28,0.029,195.9
2022-06-24T04:07:03,42.805,6.029,0.017,-0.012,-0.004,105.0,105.0,103.0,13.3,1505.2,327.7,-0.7,1.8,2470.942,13.28,0.02,125.2
2022-06-24T04:10:03,42.805,6.029,0.012,-0.003,-0.024,105.0,104.0,103.0,13.4,1505.2,327.2,-0.8,1.8,2470.926,13.28,0.012,104.0
2022-06-24T04:13:03,42.805,6.029,0.018,-0.003,-0.025,104.0,104.0,103.0,13.4,1505.2,328.7,-0.8,1.8,2470.936,13.28,0.018,99.5
2022-06-24T04:16:03,42.805,6.029,0.004,-0.028,-0.008,105.0,104.0,103.0,13.4,1505.2,328.0,-0.8,1.8,2470.911,13.28,0.028,171.9
2022-06-24T04:19:03,42.805,6.029,0.023,-0.023,-0.038,105.0,104.0,103.0,13.3,1505.2,328.8,-0.8,1.8,2470.935,13.28,0.032,135.0
2022-06-24T04:22:03,42.805,6.029,0.003,-0.023,-0.027,106.0,105.0,103.0,13.4,1505.2,329.7,-0.7,1.8,2470.961,13.28,0.023,172.6
2022-06-24T04:25:03,42.805,6.029,0.016,-0.011,-0.016,104.0,105.0,102.0,13.4,1505.2,324.0,-0.7,1.8,2470.936,13.28,0.019,124.5
2022-06-24T04:28:03,42.805,6.029,0.017,-0.03,-0.004,105.0,104.0,103.0,13.4,1505.2,322.2,-0.8,1.8,2470.928,13.28,0.034,150.5
2022-06-24T04:31:03,42.805,6.029,0.026,-0.039,-0.016,105.0,104.0,103.0,13.4,1505.2,324.1,-0.7,1.8,2470.904,13.28,0.046,146.3
2022-06-24T04:34:03,42.805,6.029,0.004,-0.032,-0.028,106.0,104.0,103.0,13.4,1505.2,324.4,-0.8,1.8,2470.89,13.28,0.032,172.9
2022-06-24T04:37:03,42.805,6.029,0.025,-0.029,-0.011,105.0,104.0,102.0,13.4,1505.2,327.9,-0.8,1.8,2470.91,13.28,0.038,139.2
2022-06-24T04:40:03,42.805,6.029,0.006,-0.025,-0.058,106.0,103.0,103.0,13.4,1505.2,333.2,-0.7,1.8,2470.873,13.28,0.025,166.5
2022-06-24T04:43:03,42.805,6.029,0.002,-0.006,-0.013,104.0,105.0,102.0,13.4,1505.2,322.4,-0.8,1.8,2470.888,13.28,0.006,161.6
2022-06-24T04:46:03,42.805,6.029,0.022,-0.013,-0.026,105.0,104.0,102.0,13.3,1505.2,326.1,-0.8,1.8,2470.912,13.28,0.025,120.6
2022-06-24T04:49:03,42.805,6.029,-0.005,-0.015,-0.028,104.0,105.0,103.0,13.4,1505.2,322.3,-0.7,1.8,2470.931,13.28,0.015,198.4
2022-06-24T04:52:03,42.805,6.029,-0.017,-0.032,-0.025,105.0,103.0,101.0,13.4,1505.2,333.2,-0.8,1.8,2470.878,13.28,0.036,208.0
2022-06-24T04:55:03,42.805,6.029,-0.007,-0.017,-0.03,104.0,104.0,103.0,13.3,1505.2,323.4,-0.8,1.8,2470.897,13.28,0.018,202.4
2022-06-24T04:58:03,42.805,6.029,0.0,-0.03,-0.037,104.0,104.0,102.0,13.4,1505.2,327.2,-0.7,1.9,2470.914,13.28,0.03,180.0
2022-06-24T05:04:03,42.805,6.029,0.014,-0.005,-0.03,104.0,103.0,102.0,13.4,1505.2,319.8,-0.8,1.8,2470.93,13.28,0.014,109.6
2022-06-24T05:07:03,42.805,6.029,0.024,0.0,0.009,103.0,103.0,101.0,13.4,1505.2,333.2,-0.7,1.8,2470.943,13.28,0.024,90.0
2022-06-24T05:10:03,42.805,6.029,0.018,-0.017,-0.036,103.0,102.0,103.0,13.3,1505.2,327.9,-0.7,1.9,2470.943,13.28,0.024,133.4
2022-06-24T05:13:03,42.805,6.029,0.009,-0.01,-0.018,104.0,102.0,101.0,13.4,1505.2,324.6,-0.8,1.8,2470.897,13.28,0.013,138.0
2022-06-24T05:16:03,42.805,6.029,0.032,-0.005,0.018,104.0,103.0,102.0,13.3,1505.2,326.8,-0.7,1.8,2470.896,13.28,0.032,98.9
2022-06-24T05:19:03,42.805,6.029,0.013,-0.019,-0.017,105.0,103.0,101.0,13.3,1505.2,330.3,-0.7,1.8,2470.902,13.28,0.023,145.6
2022-06-24T05:22:03,42.805,6.029,0.016,-0.023,-0.037,104.0,103.0,102.0,13.3,1505.2,321.4,-0.8,1.8,2470.942,13.28,0.028,145.2
2022-06-24T05:25:03,42.805,6.029,0.016,-0.04,-0.016,105.0,105.0,100.0,13.3,1505.2,321.6,-0.7,1.8,2470.928,13.28,0.043,158.2
2022-06-24T05:28:03,42.805,6.029,0.013,-0.009,-0.038,105.0,102.0,101.0,13.4,1505.2,319.9,-0.8,1.8,2470.865,13.28,0.015,124.7
2022-06-24T05:31:03,42.805,6.029,0.012,-0.007,-0.001,104.0,105.0,102.0,13.3,1505.2,322.4,-0.7,1.8,2470.873,13.28,0.013,120.3
2022-06-24T05:34:03,42.805,6.029,-0.01,-0.02,-0.02,102.0,104.0,101.0,13.3,1505.2,326.0,-0.7,1.8,2470.899,13.28,0.022,206.6
2022-06-24T05:37:03,42.805,6.029,0.011,-0.015,-0.05,103.0,102.0,102.0,13.4,1505.2,324.4,-0.8,1.9,2470.909,13.28,0.018,143.7
2022-06-24T05:40:03,42.805,6.029,-0.003,-0.015,-0.027,104.0,104.0,100.0,13.4,1505.2,321.1,-0.7,1.8,2470.901,13.28,0.015,191.3
2022-06-24T05:43:03,42.805,6.029,0.007,-0.028,0.002,105.0,104.0,102.0,13.3,1505.2,324.0,-0.8,1.8,2470.883,13.28,0.028,166.0
2022-06-24T05:46:03,42.805,6.029,0.008,-0.01,-0.022,104.0,104.0,101.0,13.4,1505.2,326.0,-0.8,1.8,2470.885,13.28,0.012,141.3
2022-06-24T05:49:03,42.805,6.029,-0.011,-0.011,-0.05,103.0,105.0,103.0,13.3,1505.2,324.8,-0.8,1.8,2470.9,13.28,0.015,225.0
2022-06-24T05:52:03,42.805,6.029,0.002,-0.019,-0.026,102.0,103.0,102.0,13.4,1505.2,329.0,-0.8,1.8,2470.885,13.28,0.019,174.0
2022-06-24T05:55:03,42.805,6.029,0.016,-0.011,-0.026,104.0,103.0,102.0,13.4,1505.2,321.5,-0.8,1.8,2470.872,13.28,0.019,124.5
2022-06-24T05:58:03,42.805,6.029,0.003,-0.005,-0.015,103.0,104.0,102.0,13.4,1505.2,331.8,-0.8,1.8,2470.875,13.28,0.005,149.0
2022-06-24T06:04:03,42.805,6.029,0.017,-0.007,-0.016,104.0,103.0,101.0,13.3,1505.2,329.0,-0.8,1.8,2470.926,13.28,0.018,112.4
2022-06-24T06:07:03,42.805,6.029,0.026,-0.002,-0.014,104.0,103.0,101.0,13.3,1505.2,330.3,-0.8,1.8,2470.902,13.28,0.026,94.4
2022-06-24T06:10:03,42.805,6.029,-0.008,-0.009,-0.043,104.0,103.0,101.0,13.4,1505.2,326.4,-0.8,1.8,2470.915,13.28,0.012,221.6
2022-06-24T06:13:03,42.805,6.029,0.029,-0.041,-0.045,103.0,103.0,101.0,13.4,1505.2,331.3,-0.8,1.8,2470.898,13.28,0.05,144.7
2022-06-24T06:16:03,42.805,6.029,0.012,-0.004,0.006,104.0,102.0,101.0,13.4,1505.2,323.4,-0.7,1.8,2470.911,13.28,0.012,108.4
2022-06-24T06:19:03,42.805,6.029,0.014,-0.007,0.0,104.0,103.0,103.0,13.4,1505.2,319.7,-0.8,1.8,2470.895,13.28,0.015,116.6
2022-06-24T06:22:03,42.805,6.029,0.003,-0.018,-0.02,108.0,103.0,101.0,13.3,1505.2,330.5,-0.7,1.8,2470.866,13.28,0.018,170.5
2022-06-24T06:25:03,42.805,6.029,-0.012,-0.017,-0.017,103.0,103.0,103.0,13.4,1505.2,328.8,-0.7,1.8,2470.87,13.28,0.02,215.2
2022-06-24T06:28:03,42.805,6.029,0.001,-0.004,-0.014,105.0,103.0,102.0,13.4,1505.2,325.3,-0.8,1.8,2470.857,13.28,0.004,166.0
2022-06-24T06:31:03,42.805,6.029,0.015,-0.028,0.003,103.0,104.0,101.0,13.4,1505.2,323.6,-0.8,1.8,2470.873,13.29,0.031,151.8
2022-06-24T06:34:03,42.805,6.029,-0.007,-0.006,-0.029,105.0,103.0,102.0,13.4,1505.2,323.3,-0.7,1.9,2470.874,13.29,0.009,229.4
2022-06-24T06:37:03,42.805,6.029,0.007,-0.003,-0.024,105.0,104.0,102.0,13.3,1505.2,321.5,-0.7,1.8,2470.891,13.29,0.007,113.2
2022-06-24T06:40:03,42.805,6.029,0.034,-0.027,-0.019,103.0,105.0,102.0,13.4,1505.2,322.3,-0.8,1.8,2470.862,13.29,0.043,128.5
2022-06-24T06:43:03,42.805,6.029,0.014,-0.013,-0.036,103.0,104.0,103.0,13.4,1505.2,324.8,-0.8,1.8,2470.867,13.29,0.019,132.9
2022-06-24T06:46:03,42.805,6.029,0.022,0.001,-0.03,106.0,105.0,102.0,13.4,1505.2,330.8,-0.8,1.8,2470.852,13.29,0.022,87.4
2022-06-24T06:49:03,42.805,6.029,0.012,-0.015,-0.017,104.0,103.0,102.0,13.4,1505.2,326.7,-0.7,1.8,2470.87,13.29,0.019,141.3
2022-06-24T06:52:03,42.805,6.029,0.006,-0.007,-0.011,104.0,104.0,103.0,13.4,1505.2,320.8,-0.8,1.8,2470.858,13.29,0.009,139.4
2022-06-24T06:55:03,42.805,6.029,0.017,-0.024,-0.03,106.0,104.0,102.0,13.3,1505.2,324.2,-0.7,1.8,2470.908,13.29,0.029,144.7
2022-06-24T06:58:03,42.805,6.029,0.02,-0.032,-0.034,104.0,104.0,103.0,13.4,1505.2,328.0,-0.8,1.8,2470.844,13.28,0.037,148.0
2022-06-24T07:04:03,42.805,6.029,0.025,-0.031,-0.042,103.0,105.0,102.0,13.4,1505.2,327.4,-0.7,1.8,2470.879,13.28,0.039,141.1
2022-06-24T07:07:03,42.805,6.029,0.013,-0.003,-0.022,104.0,103.0,102.0,13.4,1505.2,331.5,-0.7,1.8,2470.896,13.28,0.013,103.0
2022-06-24T07:10:03,42.805,6.029,0.028,-0.016,0.008,105.0,104.0,101.0,13.4,1505.2,320.7,-0.8,1.8,2470.898,13.28,0.032,119.7
2022-06-24T07:13:03,42.805,6.029,0.01,-0.018,-0.002,104.0,102.0,101.0,13.4,1505.2,329.3,-0.8,1.8,2470.88,13.28,0.02,150.9
2022-06-24T07:16:03,42.805,6.029,0.005,-0.026,0.001,104.0,104.0,102.0,13.4,1505.2,326.7,-0.8,1.8,2470.852,13.28,0.026,169.1
2022-06-24T07:19:03,42.805,6.029,0.007,-0.011,-0.02,104.0,103.0,102.0,13.4,1505.2,322.1,-0.8,1.8,2470.871,13.28,0.013,147.5
2022-06-24T07:22:03,42.805,6.029,0.012,-0.014,-0.044,106.0,104.0,100.0,13.4,1505.2,324.7,-0.8,1.8,2470.862,13.28,0.018,139.4
2022-06-24T07:25:03,42.805,6.029,0.017,-0.027,-0.005,104.0,103.0,103.0,13.4,1505.2,325.6,-0.8,1.8,2470.839,13.29,0.031,147.8
2022-06-24T07:28:03,42.805,6.029,0.012,-0.013,-0.015,104.0,103.0,101.0,13.3,1505.2,324.6,-0.8,1.8,2470.84,13.29,0.017,137.3
2022-06-24T07:31:03,42.805,6.029,0.006,0.0,0.005,106.0,102.0,103.0,13.4,1505.2,325.7,-0.7,1.8,2470.841,13.29,0.006,90.0
2022-06-24T07:34:03,42.805,6.029,0.015,0.001,0.012,103.0,104.0,103.0,13.4,1505.2,329.3,-0.7,1.8,2470.879,13.29,0.015,86.2
2022-06-24T07:37:03,42.805,6.029,0.019,-0.009,-0.011,105.0,103.0,102.0,13.4,1505.2,323.9,-0.7,1.8,2470.879,13.29,0.021,115.3
2022-06-24T07:40:03,42.805,6.029,0.038,-0.018,0.004,104.0,103.0,103.0,13.4,1505.2,328.2,-0.8,1.8,2470.828,13.29,0.042,115.3
2022-06-24T07:43:03,42.805,6.029,0.0,-0.003,-0.039,106.0,104.0,102.0,13.4,1505.2,322.0,-0.8,1.8,2470.846,13.29,0.003,180.0
2022-06-24T07:46:03,42.805,6.029,0.013,0.01,-0.003,105.0,104.0,102.0,13.4,1505.2,324.7,-0.7,1.8,2470.843,13.29,0.016,52.4
2022-06-24T07:49:03,42.805,6.029,0.021,0.0,-0.02,104.0,104.0,101.0,13.3,1505.2,320.7,-0.8,1.8,2470.807,13.29,0.021,90.0
2022-06-24T07:52:03,42.805,6.029,0.007,-0.007,0.002,103.0,104.0,102.0,13.4,1505.2,332.7,-0.7,1.8,2470.789,13.29,0.009,135.0
2022-06-24T07:55:03,42.805,6.029,0.012,-0.017,-0.038,103.0,104.0,101.0,13.4,1505.2,333.6,-0.7,1.8,2470.843,13.29,0.02,144.8
2022-06-24T07:58:03,42.805,6.029,0.0,-0.014,-0.019,105.0,102.0,101.0,13.4,1505.2,328.7,-0.8,1.8,2470.838,13.29,0.014,180.0
2022-06-24T08:04:03,42.805,6.029,0.01,-0.006,-0.014,105.0,104.0,102.0,13.4,1505.2,322.7,-0.8,1.9,2470.878,13.28,0.011,121.0
2022-06-24T08:07:03,42.805,6.029,0.011,0.006,-0.014,104.0,105.0,102.0,13.3,1505.2,331.3,-0.8,1.8,2470.83,13.28,0.012,61.4
2022-06-24T08:10:03,42.805,6.029,0.006,-0.002,0.006,105.0,103.0,102.0,13.4,1505.2,326.3,-0.7,1.8,2470.814,13.28,0.006,108.4
2022-06-24T08:13:03,42.805,6.029,0.017,-0.001,-0.017,103.0,104.0,102.0,13.4,1505.2,331.1,-0.8,1.8,2470.834,13.28,0.017,93.4
2022-06-24T08:16:03,42.805,6.029,0.005,-0.008,-0.015,105.0,103.0,102.0,13.3,1505.2,322.5,-0.8,1.8,2470.848,13.29,0.009,148.0
2022-06-24T08:19:03,42.805,6.029,0.016,-0.018,-0.034,105.0,104.0,102.0,13.4,1505.2,325.0,-0.8,1.8,2470.812,13.29,0.024,138.4
2022-06-24T08:22:03,42.805,6.029,0.034,-0.026,-0.015,103.0,104.0,102.0,13.3,1505.2,332.5,-0.7,1.8,2470.832,13.29,0.042,127.4
2022-06-24T08:25:03,42.805,6.029,0.007,-0.02,-0.037,104.0,104.0,101.0,13.4,1505.2,330.8,-0.8,1.8,2470.815,13.29,0.021,160.7
2022-06-24T08:28:03,42.805,6.029,0.009,-0.004,-0.023,104.0,103.0,103.0,13.4,1505.2,334.1,-0.7,1.8,2470.823,13.29,0.009,114.0
2022-06-24T08:31:03,42.805,6.029,0.007,-0.027,-0.03,106.0,104.0,102.0,13.4,1505.2,333.6,-0.7,1.8,2470.81,13.29,0.027,165.5
2022-06-24T08:34:03,42.805,6.029,0.003,-0.019,-0.035,104.0,103.0,102.0,13.4,1505.2,322.8,-0.8,1.8,2470.807,13.29,0.019,171.0
2022-06-24T08:37:03,42.805,6.029,0.015,0.002,0.0,103.0,103.0,103.0,13.4,1505.2,319.8,-0.8,1.8,2470.745,13.29,0.015,82.4
2022-06-24T08:40:03,42.805,6.029,0.018,-0.02,-0.034,104.0,104.0,102.0,13.4,1505.2,327.2,-0.7,1.8,2470.824,13.29,0.026,138.0
2022-06-24T08:43:03,42.805,6.029,0.022,-0.008,-0.017,104.0,104.0,103.0,13.4,1505.2,330.3,-0.7,1.9,2470.822,13.29,0.023,110.0
2022-06-24T08:46:03,42.805,6.029,0.04,-0.036,-0.013,104.0,104.0,102.0,13.4,1505.2,323.5,-0.8,1.8,2470.79,13.29,0.053,132.0
2022-06-24T08:49:03,42.805,6.029,0.01,-0.011,0.0,105.0,103.0,102.0,13.4,1505.2,326.4,-0.7,1.8,2470.777,13.29,0.014,137.7
2022-06-24T08:52:03,42.805,6.029,0.005,-0.01,-0.018,105.0,103.0,102.0,13.4,1505.2,331.5,-0.7,1.8,2470.786,13.29,0.011,153.4
2022-06-24T08:55:03,42.805,6.029,0.007,-0.014,-0.015,105.0,104.0,103.0,13.3,1505.2,328.6,-0.7,1.8,2470.802,13.29,0.015,153.4
2022-06-24T08:58:03,42.805,6.029,0.0,-0.015,-0.032,104.0,103.0,102.0,13.3,1505.2,320.0,-0.7,1.8,2470.826,13.29,0.015,180.0
2022-06-24T09:04:03,42.805,6.029,0.012,-0.014,-0.033,106.0,106.0,101.0,13.3,1505.2,326.1,-0.8,1.9,2470.877,13.28,0.018,139.4
2022-06-24T09:07:03,42.805,6.029,0.02,-0.003,-0.009,104.0,104.0,104.0,13.3,1505.2,319.9,-0.8,1.8,2470.834,13.28,0.02,98.5
2022-06-24T09:10:03,42.805,6.029,0.008,-0.011,-0.023,106.0,104.0,102.0,13.3,1505.2,324.4,-0.8,1.8,2470.829,13.28,0.013,144.0
2022-06-24T09:13:03,42.805,6.029,-0.001,0.006,-0.015,105.0,103.0,102.0,13.4,1505.2,331.5,-0.7,1.8,2470.809,13.28,0.006,350.5
2022-06-24T09:16:03,42.805,6.029,0.012,-0.014,-0.03,104.0,103.0,101.0,13.3,1505.2,320.6,-0.8,1.8,2470.85,13.28,0.018,139.4
2022-06-24T09:19:03,42.805,6.029,0.027,0.008,-0.025,103.0,105.0,103.0,13.3,1505.2,322.2,-0.8,1.8,2470.795,13.29,0.028,73.5
2022-06-24T09:22:03,42.805,6.029,0.037,-0.01,-0.023,104.0,104.0,103.0,13.3,1505.2,323.7,-0.8,1.8,2470.824,13.29,0.038,105.1
2022-06-24T09:25:03,42.805,6.029,0.025,0.025,-0.002,104.0,104.0,102.0,13.4,1505.2,324.4,-0.8,1.8,2470.798,13.29,0.035,45.0
2022-06-24T09:28:03,42.805,6.029,-0.007,-0.001,-0.037,103.0,104.0,103.0,13.4,1505.2,324.6,-0.8,1.8,2470.822,13.29,0.007,261.9
2022-06-24T09:31:03,42.805,6.029,0.016,-0.021,-0.032,103.0,104.0,102.0,13.4,1505.2,325.3,-0.8,1.8,2470.834,13.29,0.026,142.7
2022-06-24T09:34:03,42.805,6.029,0.023,0.009,-0.006,104.0,105.0,102.0,13.4,1505.2,321.8,-0.7,1.8,2470.774,13.29,0.024,68.6
2022-06-24T09:37:03,42.805,6.029,0.013,-0.028,-0.031,103.0,105.0,102.0,13.4,1505.2,325.3,-0.7,1.8,2470.768,13.29,0.03,155.1
2022-06-24T09:40:03,42.805,6.029,0.007,-0.001,-0.033,104.0,104.0,102.0,13.3,1505.2,324.5,-0.7,1.8,2470.799,13.29,0.007,98.1
2022-06-24T09:43:03,42.805,6.029,0.016,0.012,-0.018,104.0,104.0,103.0,13.3,1505.2,324.5,-0.8,1.8,2470.773,13.29,0.02,53.1
2022-06-24T09:46:03,42.805,6.029,0.015,-0.004,-0.012,105.0,104.0,102.0,13.4,1505.2,326.0,-0.7,1.8,2470.778,13.29,0.015,104.9
2022-06-24T09:49:03,42.805,6.029,0.0,-0.027,-0.009,103.0,105.0,102.0,13.3,1505.2,326.0,-0.8,1.8,2470.768,13.29,0.026,180.0
2022-06-24T09:52:03,42.805,6.029,0.015,-0.002,0.009,104.0,103.0,102.0,13.4,1505.2,319.6,-0.8,1.8,2470.8,13.29,0.015,97.6
2022-06-24T09:55:03,42.805,6.029,0.018,-0.003,0.011,103.0,106.0,102.0,13.3,1505.2,323.8,-0.7,1.8,2470.8,13.29,0.018,99.5